sat.trackr.live / text

‹ back to catalog

STARLINK-2220

NORAD 48570 · 2021-041T

PAYLOAD ACTIVE UNKNOWN

§ Identity

Operator
Country
US
Launch date
2021-05-15
Launch site
AFETR
Launch vehicle
Mass (kg)
RCS (m²)

Purposes: comms

External: N2YO · Heavens-Above · Gunter

§ Orbital elements

Epoch: 2026-05-25T06:00:02.000160Z

Period
92.71 min
Inclination
53.1385°
Eccentricity
0.0001242
Mean motion
15.53224910 rev/d
Perigee alt
406.5 km
Apogee alt
408.2 km
Semi-major
6,785.5 km
B*
1.4376e-2
RAAN
151.5764°
Arg perigee
94.0471°
Mean anomaly
55.8232°
Rev number
540

§ Raw data

STARLINK-22201 48570U 21041T   26145.25002315  .01009101  00000+0  14376-1 0  99912 48570  53.1385 151.5764 0001242  94.0471  55.8232 15.53224910  5400

JSON: /api/v1/satellites/48570 · /tle

For live sub-satellite position, see the globe view (requires WebGL).

§ Visibility from observer

Set your observer location to see the next 7 days of passes ≥ 10°. The values pass through the URL so the page stays shareable.

No JS? Fill the form by hand. The geolocation button needs JavaScript.